Location: Bednik
(45.3500°N, 16.3833°E)
Time: 21:49:03
(UTC+00:00)

Cosmos 1697 Rocket - Pass Details

Date: 08 August 2020
Orbit: 834 x 842 km, 71.0° (Epoch: 21 September)

Event Time Altitude Azimuth Distance (km) Brightness Sun altitude
Rises 20:52:34 0° 323° (NW) 3,389 7.3 -22.4°
Reaches altitude 10° 20:55:25 10° 310° (NW) 2,451 6.1 -22.6°
Maximum altitude 20:59:50 24° 258° (WSW) 1,649 4.4 -23.0°
Enters shadow 21:02:35 17° 219° (SW) 1,996 4.4 -23.3°
